Location: Austin
(30.3000°N, 97.7500°W)
Time: 21:32:32
(UTC-05:00)

SL-8 Rocket - Visible Passes

Search period start: 24 July 2024 00:00
Search period end: 03 August 2024 00:00
Orbit: 958 x 989 km, 82.9° (Epoch: 24 July)

Date Brightness Start Highest point End Pass type
(mag) Time Alt. Az. Time Alt. Az. Time Alt. Az.
24 Jul 4.9 21:15:48 10° SE 21:20:58 28° E 21:26:10 10° NNE visible
24 Jul 5.5 23:00:29 10° SW 23:06:03 33° W 23:11:41 10° NNW visible
25 Jul 4.1 21:39:23 10° SSE 21:45:27 54° E 21:51:34 10° NNE visible
25 Jul 6.4 23:27:05 10° WSW 23:31:03 17° WNW 23:35:03 10° NW visible
26 Jul 4.1 22:03:48 10° S 22:10:04 80° W 22:16:24 10° N visible
27 Jul 5.2 20:45:15 10° SE 20:49:55 22° E 20:54:36 10° NE visible
27 Jul 5.2 22:28:59 10° SSW 22:34:50 41° W 22:40:46 10° N visible
28 Jul 4.4 21:08:29 10° SSE 21:14:21 43° E 21:20:15 10° NNE visible
28 Jul 6.2 22:55:06 10° SW 22:59:46 22° WNW 23:04:29 10° NNW visible
29 Jul 4.0 21:32:38 10° S 21:38:55 83° E 21:45:16 10° N visible
29 Jul 6.9 23:23:59 10° W 23:24:53 10° WNW 23:25:48 10° WNW visible
30 Jul 4.8 21:57:33 10° SSW 22:03:38 52° W 22:09:46 10° N visible
31 Jul 6.0 22:23:19 10° SW 22:28:31 27° WNW 22:33:46 10° NNW visible
01 Aug 4.0 21:01:34 10° S 21:07:47 68° E 21:14:04 10° NNE visible
01 Aug 6.7 22:50:36 10° WSW 22:53:34 14° WNW 22:56:33 10° NW visible
02 Aug 4.5 21:26:15 10° SSW 21:32:27 64° W 21:38:44 10° N visible
